Cheboygan, MI

4:33 PM EST on January 23, 2017 (GMT -0500)
Cheboygan

Weather History for KSLH - October, 2013

Change the Weather History Date:

Friday, October 11, 2013

  Actual Average (KMCD) Record (KMCD)
Temperature  
Mean Temperature 50 °F -  
Max Temperature 63 °F 53 °F 68 °F (2011)
Min Temperature 37 °F 42 °F 28 °F (1996)
Degree Days  
Heating Degree Days 15    
Moisture  
Dew Point 47 °F    
Average Humidity 85    
Maximum Humidity 95    
Minimum Humidity 71    
Precipitation  
Precipitation 0.00 in - - ()
Sea Level Pressure  
Sea Level Pressure 30.12 in    
Wind  
Wind Speed 3 mph (ENE)    
Max Wind Speed 13 mph    
Max Gust Speed -    
Visibility 8 miles    
Events Fog    
Averages and records for this station are not official NWS values.
T = Trace of Precipitation, MM = Missing Value Source: NWS Daily Summary

Daily Weather History Graph

Daily Weather History Graph

Search for Another Location

Airport or City:

Trip Planner

Search our weather history database for the weather conditions in past years. The results will help you decide how hot, cold, wet, or windy it might be!

Date:

Astronomy

Oct. 11, 2013 Rise Set
Actual Time 7:49 AM EDT 6:59 PM EDT
Civil Twilight 7:19 AM EDT 7:28 PM EDT
Nautical Twilight 6:45 AM EDT 8:03 PM EDT
Astronomical Twilight 6:10 AM EDT 8:37 PM EDT
Moon 2:40 PM EDT (10/11) No Moon Set
Length of Visible Light 12h 09m
Length of Day
11h 09m
Waxing Crescent, 47% of the Moon is Illuminated
Oct 11
Waxing Crescent
Oct 11
First Quarter
Oct 18
Full
Oct 26
Last Quarter
Nov 3
New

Hourly Weather History & Observations

Time (EDT) Temp. Windchill Dew Point Humidity Pressure Visibility Wind Dir Wind Speed Gust Speed Precip Events Conditions
12:15 AM 43.5 °F - 41.4 °F 92% 30.13 in 7.0 mi Calm Calm - N/A   Clear
12:36 AM 42.1 °F 40.2 °F 39.9 °F 92% 30.12 in 5.0 mi SE 3.5 mph - N/A   Clear
12:56 AM 50.0 °F - 48.4 °F 94% 30.12 in 10.0 mi South 4.6 mph - N/A   Clear
1:15 AM 50.0 °F - 47.3 °F 90% 30.12 in 10.0 mi Calm Calm - N/A   Clear
1:36 AM 50.0 °F - 48.0 °F 93% 30.13 in 10.0 mi Calm Calm - N/A   Clear
1:56 AM 46.6 °F - 44.8 °F 93% 30.13 in 4.0 mi Calm Calm - N/A   Clear
2:15 AM 46.6 °F - 44.2 °F 92% 30.13 in 4.0 mi Calm Calm - N/A   Clear
2:36 AM 46.0 °F - 44.2 °F 93% 30.13 in 2.5 mi Calm Calm - N/A   Clear
2:56 AM 43.5 °F - 41.0 °F 91% 30.13 in 0.8 mi Calm Calm - N/A   Mist
3:16 AM 45.7 °F - 44.1 °F 94% 30.13 in 0.2 mi Calm Calm - N/A Fog Fog
3:36 AM 45.0 °F - 43.2 °F 93% 30.13 in 10.0 mi Calm Calm - N/A   Clear
3:56 AM 44.8 °F - 43.2 °F 94% 30.13 in 5.0 mi Calm Calm - N/A   Clear
4:16 AM 45.1 °F - 43.3 °F 93% 30.13 in 3.0 mi Calm Calm - N/A   Clear
4:36 AM 45.7 °F - 44.1 °F 94% 30.13 in 0.5 mi Calm Calm - N/A Fog Fog
4:56 AM 41.7 °F 39.8 °F 39.9 °F 93% 30.14 in 1.0 mi East 3.5 mph - N/A   Mist
5:16 AM 42.3 °F - 40.6 °F 94% 30.14 in 0.8 mi Calm Calm - N/A   Mist
5:36 AM 42.3 °F - 40.8 °F 95% 30.15 in 5.0 mi Calm Calm - N/A   Clear
5:55 AM 40.3 °F - 38.5 °F 93% 30.15 in 7.0 mi Calm Calm - N/A   Clear
6:16 AM 41.0 °F - 39.0 °F 93% 30.15 in 7.0 mi Calm Calm - N/A   Clear
6:36 AM 39.7 °F - 37.9 °F 93% 30.15 in 0.8 mi Calm Calm - N/A   Mist
6:55 AM 40.1 °F - 37.9 °F 92% 30.15 in 7.0 mi Calm Calm - N/A   Clear
7:16 AM 39.9 °F - 36.1 °F 86% 30.16 in 7.0 mi Calm Calm - N/A   Clear
7:35 AM 37.2 °F - 34.9 °F 91% 30.16 in 7.0 mi Calm Calm - N/A   Clear
7:56 AM 37.4 °F - 35.8 °F 94% 30.16 in 0.8 mi Calm Calm - N/A   Mist
8:16 AM 38.5 °F - 36.3 °F 92% 30.16 in 1.0 mi Calm Calm - N/A   Mist
8:35 AM 39.0 °F - 35.8 °F 88% 30.16 in 5.0 mi Calm Calm - N/A   Clear
8:56 AM 41.2 °F - 39.0 °F 92% 30.17 in 4.0 mi Calm Calm - N/A   Scattered Clouds
9:15 AM 45.9 °F - 44.2 °F 94% 30.17 in 3.0 mi Calm Calm - N/A   Scattered Clouds
9:36 AM 49.5 °F - 47.1 °F 92% 30.17 in 10.0 mi Calm Calm - N/A   Clear
9:56 AM 51.4 °F - 47.1 °F 85% 30.17 in 10.0 mi Calm Calm - N/A   Clear
10:16 AM 53.4 °F - 48.6 °F 84% 30.17 in 10.0 mi Calm Calm - N/A   Clear
10:36 AM 54.9 °F - 49.1 °F 81% 30.17 in 10.0 mi Calm Calm - N/A   Clear
10:56 AM 57.0 °F - 50.0 °F 77% 30.16 in 10.0 mi ENE 3.5 mph - N/A   Clear
11:16 AM 58.3 °F - 50.9 °F 76% 30.16 in 10.0 mi ENE 4.6 mph - N/A   Clear
11:36 AM 59.9 °F - 51.1 °F 73% 30.16 in 10.0 mi ENE 4.6 mph - N/A   Clear
11:56 AM 59.9 °F - 51.6 °F 74% 30.16 in 10.0 mi NE 5.8 mph - N/A   Clear
12:16 PM 60.8 °F - 53.1 °F 76% 30.16 in 10.0 mi NE 6.9 mph - N/A   Clear
12:36 PM 61.2 °F - 53.6 °F 76% 30.15 in 10.0 mi NE 8.1 mph - N/A   Clear
12:55 PM 61.3 °F - 54.0 °F 77% 30.15 in 10.0 mi NE 6.9 mph - N/A   Clear
1:16 PM 62.1 °F - 53.8 °F 74% 30.14 in 10.0 mi NE 9.2 mph - N/A   Clear
1:36 PM 62.6 °F - 54.7 °F 75% 30.14 in 10.0 mi NE 8.1 mph - N/A   Clear
1:56 PM 61.9 °F - 54.7 °F 77% 30.13 in 10.0 mi NE 10.4 mph - N/A   Clear
2:16 PM 59.9 °F - 54.3 °F 82% 30.13 in 10.0 mi NE 12.7 mph - N/A   Clear
2:36 PM 59.4 °F - 54.5 °F 84% 30.13 in 10.0 mi NE 10.4 mph - N/A   Clear
2:56 PM 59.9 °F - 54.5 °F 82% 30.12 in 10.0 mi NE 10.4 mph - N/A   Clear
3:16 PM 61.7 °F - 55.4 °F 80% 30.12 in 10.0 mi NE 8.1 mph - N/A   Clear
3:35 PM 63.0 °F - 54.7 °F 74% 30.12 in 10.0 mi NE 9.2 mph - N/A   Clear
3:56 PM 63.3 °F - 54.0 °F 71% 30.12 in 10.0 mi NE 10.4 mph - N/A   Clear
4:16 PM 60.4 °F - 53.6 °F 78% 30.12 in 10.0 mi NE 8.1 mph - N/A   Clear
4:35 PM 60.8 °F - 53.4 °F 77% 30.12 in 10.0 mi NE 8.1 mph - N/A   Clear
4:56 PM 59.5 °F - 53.2 °F 80% 30.11 in 10.0 mi NE 8.1 mph - N/A   Clear
5:16 PM 58.6 °F - 53.6 °F 83% 30.10 in 10.0 mi NE 6.9 mph - N/A   Clear
5:36 PM 59.7 °F - 52.9 °F 78% 30.10 in 10.0 mi NE 5.8 mph - N/A   Clear
5:56 PM 58.8 °F - 52.0 °F 78% 30.09 in 10.0 mi NE 5.8 mph - N/A   Clear
6:15 PM 58.6 °F - 50.9 °F 75% 30.09 in 10.0 mi NE 3.5 mph - N/A   Clear
6:36 PM 58.8 °F - 50.0 °F 73% 30.09 in 10.0 mi East 6.9 mph - N/A   Clear
6:56 PM 57.7 °F - 51.6 °F 80% 30.08 in 10.0 mi ESE 6.9 mph - N/A   Clear
7:16 PM 56.1 °F - 51.6 °F 85% 30.08 in 10.0 mi East 5.8 mph - N/A   Clear
7:36 PM 55.6 °F - 51.8 °F 87% 30.08 in 10.0 mi ESE 4.6 mph - N/A   Clear
7:55 PM 55.9 °F - 52.0 °F 87% 30.07 in 10.0 mi ESE 6.9 mph - N/A   Clear
8:16 PM 56.5 °F - 51.8 °F 84% 30.08 in 10.0 mi ESE 6.9 mph - N/A   Clear
8:36 PM 56.3 °F - 51.8 °F 85% 30.08 in 10.0 mi SE 4.6 mph - N/A   Clear
8:55 PM 55.2 °F - 50.9 °F 85% 30.08 in 10.0 mi SE 5.8 mph - N/A   Clear
9:16 PM 53.8 °F - 50.4 °F 88% 30.09 in 10.0 mi SSE 3.5 mph - N/A   Clear
9:36 PM 53.2 °F - 48.7 °F 85% 30.08 in 10.0 mi SE 5.8 mph - N/A   Clear
9:55 PM 51.6 °F - 46.9 °F 84% 30.08 in 10.0 mi SE 4.6 mph - N/A   Clear
10:16 PM 51.3 °F - 44.1 °F 76% 30.08 in 10.0 mi SE 5.8 mph - N/A   Clear
10:36 PM 48.4 °F - 43.0 °F 82% 30.08 in 10.0 mi Calm Calm - N/A   Clear
10:56 PM 49.6 °F - 43.5 °F 79% 30.08 in 10.0 mi Calm Calm - N/A   Clear
11:16 PM 48.6 °F - 42.1 °F 78% 30.08 in 10.0 mi Calm Calm - N/A   Clear
11:35 PM 48.9 °F - 43.2 °F 80% 30.08 in 10.0 mi SE 3.5 mph - N/A   Clear
11:56 PM 49.5 °F - 43.9 °F 81% 30.07 in 10.0 mi Calm Calm - N/A   Clear